Location: Austin
(30.3000°N, 97.7500°W)
Time: 06:59:47
(UTC-05:00)

Cosmos 1975 Rocket - Pass Details

Date: 16 June 2025
Orbit: 597 x 628 km, 82.5° (Epoch: 07 July)

Event Time Altitude Azimuth Distance (km) Brightness Sun altitude
Exits shadow 04:12:48 29° 306° (NW) 1,155 4.3 -23.9°
Drops below altitude 10° 04:15:48 10° 344° (NNW) 2,002 6.1 -23.5°
Sets 04:18:14 0° 354° (N) 2,909 7.1 -23.1°
